Dewpoint
15 11 7 6 5 4 4 5 10 13 12 13 12 12 13 14 12 12 11 11 10 11 14 17 21 24 26 26 27 28 29 30 30 30 30 31 32 34 34 35 37 39 37 38
14 11 9 7 7 9 11 11 12 17 14 13 13 13 14 14 12 12 13 13 13 15 16 19 20 23 25 26 28 28 29 29 29 29 30 33 32 34 34 35 35 36 36 37
13 11 11 11 9 11 13 11 8 13 15 13 15 14 13 13 12 12 15 17 17 18 18 19 20 23 24 25 28 28 29 28 30 30 30 32 33 32 32 34 34 35 34 36
11 11 11 13 14 17 14 18 12 16 18 12 14 18 17 12 10 12 15 16 16 18 18 19 20 21 22 25 28 29 29 28 28 30 30 32 32 31 31 33 35 35 36 34
14 12 13 14 15 18 16 21 16 19 16 19 11 16 15 12 12 12 13 14 16 18 19 20 19 21 22 24 26 30 30 28 29 29 31 31 31 32 32 31 32 31 33 36
14 17 16 16 17 18 20 19 19 18 17 24 22 17 24 14 12 11 12 14 16 18 19 18 20 23 23 24 28 30 28 27 29 29 30 31 31 32 31 29 29 30 31 34
10 12 17 20 19 22 22 21 25 22 23 21 10 9 23 15 13 12 13 15 17 19 18 19 21 23 23 24 27 28 28 27 28 29 30 30 32 31 31 31 30 31 30 31
12 11 15 18 20 15 17 18 26 16 15 16 11 12 25 18 12 13 14 16 18 18 19 22 23 24 24 26 29 30 28 27 27 28 30 29 33 31 30 30 31 32 32 32
25 16 16 17 18 24 15 17 19 24 15 16 20 22 19 15 12 12 15 16 20 19 23 24 24 24 25 28 29 31 30 28 27 29 29 30 32 31 30 29 31 32 32 34
32 16 20 15 20 20 22 20 24 21 19 16 18 14 23 22 14 19 21 26 26 24 28 27 22 23 25 28 29 31 30 27 27 29 28 31 30 29 29 31 30 31 32 33
32 31 16 12 19 27 29 28 27 28 27 21 17 23 29 16 22 22 26 32 35 34 31 25 21 22 24 27 28 29 29 26 27 28 29 30 29 29 29 30 30 31 33 33
21 27 14 15 19 18 20 30 30 26 24 25 24 18 33 26 29 29 32 29 30 29 27 21 21 22 24 25 26 27 25 25 27 27 28 28 28 29 28 30 30 31 32 33
23 29 21 16 19 18 15 21 29 29 29 22 20 26 26 28 22 30 24 25 25 22 20 20 21 23 24 24 26 23 22 25 26 26 27 27 27 27 27 28 30 31 31 32
19 23 25 21 21 27 20 18 25 22 23 26 24 26 30 29 29 31 31 26 22 20 18 18 21 23 23 23 21 19 22 24 25 25 25 25 26 27 27 29 30 30 31 31
21 13 22 21 10 13 20 16 20 21 24 21 28 25 28 32 31 28 21 20 18 17 16 18 20 23 21 20 17 19 22 23 25 24 24 25 26 27 29 30 30 29 30 31
20 20 9 12 13 11 10 11 13 19 24 24 24 23 29 29 20 18 17 17 17 16 17 18 20 19 18 16 17 20 21 23 24 24 23 24 26 26 29 28 28 29 30 31
16 22 14 14 15 16 14 17 14 13 19 23 22 26 33 21 17 16 17 18 17 16 18 19 19 17 15 17 19 20 20 22 23 23 23 24 25 27 27 27 27 29 30 31
19 18 16 15 15 13 16 17 13 15 14 18 21 21 19 16 14 15 18 21 19 20 20 20 17 15 16 18 19 20 20 22 22 22 23 23 25 26 26 25 27 28 30 30
20 18 17 17 12 13 13 14 10 11 12 12 13 13 16 13 14 17 22 21 20 20 20 18 13 14 17 18 19 19 19 21 21 22 23 23 25 25 25 26 28 28 29 29
15 18 21 21 14 11 18 11 13 13 14 15 12 12 13 13 13 23 22 23 22 20 20 16 12 13 17 19 19 19 19 20 21 22 23 22 25 25 25 26 28 28 28 28
14 19 22 23 24 24 21 12 14 9 20 14 11 12 14 15 19 23 20 21 22 19 16 13 12 14 17 19 18 19 19 20 21 22 22 23 26 25 25 26 28 28 27 27
15 18 20 23 23 19 25 14 12 21 21 14 14 15 17 19 20 22 19 21 20 18 13 12 12 15 17 19 18 18 19 20 20 21 21 22 25 25 24 25 28 28 27 26
17 21 25 23 26 29 22 20 20 19 19 16 17 17 20 20 20 20 19 21 21 16 12 12 12 15 18 19 18 19 20 20 20 20 20 22 24 25 25 26 27 28 27 25
16 20 22 26 25 25 27 21 19 20 18 18 19 20 20 21 21 21 22 22 21 15 13 14 14 17 18 18 18 19 20 21 20 20 20 22 22 24 25 26 27 28 27 26
19 18 20 21 21 19 18 24 21 18 17 17 18 19 19 21 21 22 22 23 20 16 16 16 16 18 19 18 18 19 21 21 20 20 21 22 23 23 23 25 26 27 27 28
22 20 21 22 23 23 20 20 22 20 17 17 18 19 20 21 20 21 21 21 17 16 18 17 18 20 21 19 18 20 22 22 22 21 22 22 23 23 22 25 26 26 26 27
Wind_Speed
11 13 10 6 5 6 7 9 14 8 3 4 7 8 7 7 10 12 13 14 15 15 16 16 15 16 17 17 19 21 21 22 21 20 21 20 21 18 15 15 17 21 21 22
12 12 7 5 6 9 8 9 10 6 4 3 4 7 5 6 7 9 11 14 14 15 16 17 16 15 17 17 18 20 21 22 19 19 19 17 20 16 18 18 16 21 21 20
12 8 2 6 5 12 10 9 5 8 5 4 3 5 6 7 3 5 8 12 15 17 19 19 20 18 18 18 18 19 20 21 19 21 18 18 17 15 19 20 16 21 20 20
10 4 3 7 6 9 9 4 3 6 5 5 6 2 2 6 2 11 12 14 17 18 19 19 20 20 20 19 18 19 19 21 19 20 19 22 18 16 18 20 21 22 23 20
5 5 6 7 5 10 7 5 5 4 5 5 7 3 1 5 11 13 15 15 16 16 18 20 20 20 20 18 18 16 17 20 18 19 18 19 20 14 14 17 19 20 20 21
11 8 9 7 8 9 9 8 3 4 1 2 3 1 3 6 8 12 13 14 16 18 19 20 19 19 17 16 15 15 18 20 18 19 19 19 20 17 17 20 19 20 18 17
13 11 8 6 11 6 5 6 2 2 1 4 3 6 2 3 6 8 12 13 16 17 17 19 20 18 18 16 15 15 18 19 19 19 18 19 15 17 18 18 20 22 20 18
7 5 7 4 6 3 3 4 2 2 2 3 5 5 4 3 2 6 10 12 15 17 17 18 18 16 17 15 15 14 17 18 19 18 17 18 15 16 16 20 19 17 18 18
4 4 4 4 7 6 2 3 3 1 1 3 5 1 3 7 2 8 10 12 14 16 17 17 16 16 15 13 14 13 15 17 18 18 17 17 18 18 18 18 18 17 18 18
4 5 4 5 3 7 6 3 3 3 1 4 5 8 4 7 5 8 9 10 13 15 16 16 14 16 15 13 13 14 16 18 17 17 17 13 13 13 13 14 17 19 19 18
9 2 8 3 4 4 2 2 6 4 0 2 5 3 4 5 5 8 11 10 12 13 16 15 14 14 15 15 16 17 17 18 17 17 16 15 17 11 9 9 13 17 20 20
7 3 7 7 5 7 3 6 3 3 4 2 2 8 5 4 5 10 6 8 13 15 12 12 14 16 16 17 17 18 18 18 16 17 16 17 19 18 17 9 11 15 19 20
11 4 7 3 4 7 8 10 7 4 2 8 4 3 7 8 7 8 11 13 12 9 10 11 13 15 17 17 18 18 17 17 16 17 16 18 18 19 19 15 12 16 20 19
4 7 3 3 4 9 7 14 15 8 5 4 13 10 7 10 11 12 13 17 14 10 11 13 14 16 17 17 18 17 17 15 16 17 18 14 14 16 17 18 16 19 20 20
6 4 9 8 4 6 8 11 17 18 12 9 2 8 11 8 11 13 12 13 11 11 13 16 16 16 16 16 16 16 16 15 16 17 18 19 18 19 18 19 20 21 20 20
9 2 9 9 9 9 13 15 19 23 21 21 19 27 15 13 10 12 11 9 10 12 14 16 16 16 16 16 16 16 15 13 17 15 17 18 18 20 19 20 20 19 20 20
11 4 5 3 3 5 15 22 25 22 21 19 20 14 7 9 12 10 7 7 8 10 13 14 15 15 14 14 14 15 15 12 13 15 16 19 19 20 21 20 19 19 20 20
11 9 5 3 3 4 6 4 11 23 19 19 17 13 13 13 8 4 5 7 8 9 10 11 12 11 11 12 13 14 14 14 15 15 14 17 18 19 19 20 20 20 18 19
11 8 3 3 8 15 17 7 4 10 14 15 17 14 12 8 2 5 9 5 6 6 8 11 10 9 10 12 13 14 14 15 15 16 14 15 17 18 18 19 20 20 19 19
12 9 6 4 4 5 2 4 10 2 7 10 16 11 8 4 7 8 7 8 5 6 7 8 9 9 10 10 12 12 13 14 16 17 16 14 15 16 16 18 19 18 18 18
15 9 12 9 4 10 9 11 9 3 1 2 7 6 6 6 2 10 5 7 3 4 7 5 7 9 8 10 11 12 14 15 16 16 16 13 15 15 15 16 16 17 17 18
16 14 8 9 9 12 10 13 8 3 5 6 5 6 5 2 2 5 3 3 2 6 6 6 7 6 7 10 11 13 14 15 15 16 15 13 15 15 15 16 16 16 17 18
12 13 9 15 10 8 11 7 15 0 5 6 7 7 6 3 4 4 2 3 2 3 5 5 6 6 7 9 10 12 13 15 16 15 15 15 14 14 16 17 17 16 16 17
14 21 6 11 14 17 13 16 6 12 7 7 7 6 6 5 6 5 5 4 1 4 3 4 5 6 7 8 9 10 13 15 15 15 14 15 14 15 15 14 15 15 16 16
11 16 19 13 13 7 10 18 17 14 11 8 8 7 6 7 7 7 6 5 1 1 2 2 4 5 6 8 9 11 13 14 15 15 15 16 14 16 15 15 15 15 14 13
20 15 20 10 13 15 9 10 17 16 16 13 11 9 8 8 7 8 6 6 3 2 1 1 3 4 6 7 9 11 12 14 14 14 15 13 13 14 14 14 15 15 17 17
Wind_Direction
40 79 63 56 32 43 64 75 91 82 44 84 79 84 70 59 28 27 18 17 18 9 3 7 10 6 360 5 12 5 5 360 358 4 349 353 350 337 351 7 15 15 1 356
91 80 64 61 71 69 85 110 98 99 60 235 140 101 105 47 54 35 18 10 7 2 360 359 2 5 4 4 13 7 5 357 4 6 353 354 335 353 354 351 13 8 352 354
69 96 60 60 117 96 50 49 112 79 142 103 250 180 149 110 122 27 30 8 1 3 357 353 357 359 3 8 10 9 7 356 5 6 354 350 335 2 354 345 4 1 349 345
71 82 106 83 63 331 89 56 94 125 237 65 6 113 142 24 283 24 13 8 3 356 358 353 351 1 358 8 12 14 4 359 6 6 357 347 349 9 348 349 356 350 348 343
105 87 92 68 25 355 111 147 129 166 84 47 7 271 5 102 9 3 1 358 358 356 352 354 352 2 354 7 9 8 5 358 9 3 0 351 346 5 2 342 346 343 341 343
108 79 61 66 76 72 136 136 160 288 319 221 212 186 265 8 10 349 351 348 355 354 352 352 353 355 353 1 5 6 9 356 7 3 356 350 344 12 358 344 350 343 344 342
114 97 95 359 102 116 202 184 19 230 200 236 206 262 128 63 15 353 338 350 350 350 352 349 350 345 346 353 4 5 6 357 3 359 355 347 8 2 6 1 348 337 341 342
145 151 354 17 358 65 47 345 205 185 291 45 143 233 166 160 39 343 335 347 346 344 349 348 336 339 339 356 3 19 5 358 1 357 354 341 17 19 10 354 337 334 332 333
113 108 130 56 39 345 70 122 31 48 302 273 235 176 214 170 13 341 329 341 336 339 342 325 330 338 337 355 2 18 9 6 3 355 353 347 27 18 2 340 335 332 333 331
147 120 203 129 214 60 13 61 184 146 247 260 268 253 182 170 297 304 318 318 318 321 318 315 336 332 339 358 8 17 15 11 4 355 348 19 15 9 338 332 335 334 330 329
142 148 176 157 197 177 35 93 62 90 147 264 292 251 166 171 241 277 286 285 287 295 293 312 332 343 350 6 13 13 17 13 3 354 346 6 357 339 322 331 339 337 329 335
163 149 168 188 102 166 161 155 138 204 187 225 276 277 207 178 237 254 269 270 270 271 287 332 351 347 4 6 11 12 13 9 2 347 354 16 349 341 340 352 352 348 336 337
170 174 135 167 190 208 220 184 144 134 134 216 228 261 199 245 296 313 300 294 286 308 331 349 357 2 6 8 10 9 10 3 0 345 6 17 344 337 336 348 16 360 345 344
181 189 227 158 58 135 192 213 169 177 190 207 235 275 265 256 273 286 271 273 300 344 350 360 6 9 10 10 10 4 4 359 359 353 359 356 332 330 346 8 20 5 350 344
186 195 219 251 261 225 189 214 202 205 217 219 218 269 277 259 270 256 269 286 323 346 353 3 5 9 9 8 6 2 357 358 359 4 355 351 351 354 9 15 15 0 343 341
209 211 192 243 250 243 253 237 226 222 218 245 265 277 274 271 263 268 281 314 348 351 1 2 358 3 6 6 3 358 347 6 2 3 353 351 359 359 10 11 5 344 342 341
175 198 177 253 165 337 289 248 240 234 220 222 247 259 254 276 264 272 304 320 3 359 4 1 2 6 6 7 3 352 346 3 4 359 358 355 2 1 9 0 348 345 344 341
174 202 175 260 127 255 229 214 230 232 236 219 232 241 253 259 282 297 296 44 9 11 1 2 6 9 10 9 2 346 351 8 359 354 359 358 10 5 1 353 348 344 345 346
190 188 167 205 227 281 288 213 199 190 238 242 244 242 231 249 282 262 83 76 36 11 11 21 7 10 19 12 358 349 357 6 353 349 3 7 15 6 357 350 346 344 345 349
185 200 173 178 235 254 112 94 162 103 276 237 234 219 226 209 263 111 99 83 37 19 16 13 357 15 14 6 5 354 3 360 356 348 356 11 25 10 0 348 345 346 349 353
184 181 208 211 260 280 274 138 141 192 70 126 166 180 178 217 60 95 96 114 75 358 31 13 360 21 7 8 5 354 6 360 355 351 355 6 33 12 359 350 351 348 356 353
180 179 182 202 213 256 214 143 199 151 124 160 168 171 186 192 76 105 113 71 16 356 11 13 1 8 10 13 4 356 2 358 354 360 345 18 36 12 359 353 352 353 358 359
197 198 178 194 211 237 184 188 211 272 181 186 187 185 159 195 212 157 126 109 34 331 10 25 354 351 20 17 6 356 1 359 1 349 345 23 31 16 358 357 355 359 6 6
224 202 227 190 234 235 211 216 201 214 219 193 191 193 165 199 191 164 164 164 273 4 27 11 343 359 3 14 4 3 6 1 357 347 350 21 3 18 1 358 356 1 6 2
189 190 215 236 241 249 246 216 225 220 213 217 191 190 196 190 194 187 178 174 153 36 29 24 348 351 1 3 4 14 7 2 357 345 10 16 357 16 355 355 352 359 357 357
205 198 202 216 221 221 223 214 213 222 214 208 211 197 204 211 206 167 176 142 176 141 141 355 5 1 5 358 4 17 10 1 7 354 15 1 10 1 353 348 345 346 350 351